Location: Washington
(38.8950°N, 77.0370°W)
Time: 18:22:07
(UTC-04:00)

IDEFIX/ARIANE 42P - Visible Passes

Search period start: 25 September 2017 00:00
Search period end: 05 October 2017 00:00
Orbit: 786 x 802 km, 98.2° (Epoch: 25 September)

Date Brightness Start Highest point End Pass type
(mag) Time Alt. Az. Time Alt. Az. Time Alt. Az.
25 Sep 3.4 06:23:47 10° NNE 06:28:59 57° E 06:34:09 10° S visible
25 Sep 6.2 19:24:07 10° WSW 19:26:14 12° W 19:28:21 10° WNW visible
26 Sep 4.7 05:55:54 10° NE 06:00:33 31° E 06:05:09 10° SSE visible
27 Sep 5.5 05:28:40 10° NE 05:31:59 17° E 05:35:17 10° SE visible
29 Sep 4.0 06:10:15 10° NNE 06:15:16 43° E 06:20:14 10° S visible
30 Sep 5.1 05:42:37 10° NE 05:46:47 23° E 05:50:54 10° SE visible
01 Oct 5.8 05:16:06 10° ENE 05:18:09 12° E 05:20:13 10° ESE visible
02 Oct 3.3 06:24:44 10° NNE 06:29:58 60° E 06:35:08 10° S visible
02 Oct 6.3 19:25:22 10° WSW 19:27:13 12° W 19:29:04 10° WNW visible
03 Oct 4.5 05:56:49 10° NNE 06:01:32 32° E 06:06:11 10° SSE visible
04 Oct 5.5 05:29:31 10° NE 05:32:58 17° E 05:36:24 10° SE visible
